• En España
  • Lista de países
  • Para 7 días
  • Temperatura del agua
  • Mapa Satelital
  • El tiempo en el mapa
  • Informadores
  • user-avatar
    Iniciar sesión

    Tiempo cada hora Korçe

    Hoy, 17 Octubre, Miércoles

    Tiempo Temperatura Precipitaciones Viento Presión Humedad
    00:00 +11°C° 0 mm 1 mps 670 mmHg 75%
    01:00 +11°C° 0 mm 1 mps 669 mmHg 75%
    02:00 +11°C° 0 mm 1 mps 669 mmHg 76%
    03:00 +10°C° 0 mm 1 mps 669 mmHg 77%
    04:00 +10°C° 0 mm 1 mps 669 mmHg 78%
    05:00 +11°C° 0 mm 1 mps 669 mmHg 76%
    06:00 +11°C° 0 mm 1 mps 669 mmHg 75%
    07:00 +11°C° 0 mm 1 mps 669 mmHg 73%
    08:00 +14°C° 0 mm 1 mps 669 mmHg 64%
    09:00 +16°C° 0 mm 1 mps 670 mmHg 55%
    10:00 +19°C° 0 mm 1 mps 670 mmHg 46%
    11:00 +20°C° 0 mm 1 mps 670 mmHg 44%
    12:00 +21°C° 0 mm 1 mps 670 mmHg 41%
    13:00 +20°C° 0 mm 2 mps 670 mmHg 38%
    14:00 +21°C° 0 mm 1 mps 670 mmHg 42%
    15:00 +20°C° 0 mm 1 mps 669 mmHg 45%
    16:00 +19°C° 0 mm 1 mps 669 mmHg 49%
    17:00 +18°C° 0 mm 1 mps 668 mmHg 54%
    18:00 +15°C° 0 mm 1 mps 668 mmHg 59%
    19:00 +13°C° 0 mm 1 mps 668 mmHg 65%
    20:00 +13°C° 0 mm 1 mps 668 mmHg 65%
    21:00 +12°C° 0 mm 1 mps 668 mmHg 65%
    22:00 +12°C° 0 mm 1 mps 668 mmHg 65%
    23:00 +11°C° 0 mm 1 mps 668 mmHg 65%

    Mañana, 18 Octubre, Jueves

    Tiempo Temperatura Precipitaciones Viento Presión Humedad
    00:00 +11°C° 0 mm 1 mps 667 mmHg 65%
    01:00 +11°C° 0 mm 1 mps 667 mmHg 66%
    02:00 +11°C° 0 mm 1 mps 667 mmHg 66%
    03:00 +10°C° 0 mm 1 mps 667 mmHg 66%
    04:00 +10°C° 0 mm 1 mps 667 mmHg 67%
    05:00 +11°C° 0 mm 1 mps 667 mmHg 66%
    06:00 +11°C° 0 mm 1 mps 667 mmHg 65%
    07:00 +11°C° 0 mm 1 mps 667 mmHg 64%
    08:00 +14°C° 0 mm 1 mps 668 mmHg 56%
    09:00 +16°C° 0 mm 1 mps 668 mmHg 49%
    10:00 +19°C° 0 mm 1 mps 669 mmHg 41%
    11:00 +20°C° 0 mm 1 mps 669 mmHg 39%
    12:00 +21°C° 0 mm 1 mps 669 mmHg 37%
    13:00 +21°C° 0 mm 1 mps 668 mmHg 35%
    14:00 +21°C° 0 mm 1 mps 668 mmHg 39%
    15:00 +20°C° 0 mm 1 mps 668 mmHg 43%
    16:00 +19°C° 0 mm 1 mps 668 mmHg 46%
    17:00 +16°C° 0 mm 1 mps 667 mmHg 52%
    18:00 +15°C° 0 mm 1 mps 667 mmHg 58%
    19:00 +13°C° 0 mm 1 mps 667 mmHg 63%
    20:00 +13°C° 0 mm 1 mps 667 mmHg 64%
    21:00 +12°C° 0 mm 1 mps 667 mmHg 64%
    22:00 +12°C° 0 mm 1 mps 667 mmHg 65%
    23:00 +12°C° 0 mm 1 mps 667 mmHg 65%

    Pasado mañana, 19 Octubre, Viernes

    Tiempo Temperatura Precipitaciones Viento Presión Humedad
    00:00 +11°C° 0 mm 1 mps 667 mmHg 65%
    01:00 +11°C° 0 mm 1 mps 667 mmHg 66%
    02:00 +11°C° 0 mm 1 mps 667 mmHg 66%
    03:00 +11°C° 0 mm 1 mps 667 mmHg 66%
    04:00 +11°C° 0 mm 1 mps 667 mmHg 67%
    05:00 +11°C° 0 mm 1 mps 667 mmHg 65%
    06:00 +11°C° 0 mm 1 mps 667 mmHg 64%
    07:00 +12°C° 0 mm 1 mps 668 mmHg 63%
    08:00 +14°C° 0 mm 1 mps 668 mmHg 55%
    09:00 +18°C° 0 mm 1 mps 669 mmHg 48%
    10:00 +20°C° 0 mm 1 mps 670 mmHg 41%
    11:00 +21°C° 0 mm 1 mps 670 mmHg 39%
    12:00 +21°C° 0 mm 1 mps 670 mmHg 36%
    13:00 +22°C° 0 mm 1 mps 670 mmHg 34%
    14:00 +21°C° 0 mm 1 mps 669 mmHg 38%
    15:00 +19°C° 0 mm 2 mps 669 mmHg 41%
    16:00 +19°C° 0 mm 2 mps 669 mmHg 44%
    17:00 +18°C° 0 mm 1 mps 669 mmHg 49%
    18:00 +15°C° 0 mm 1 mps 668 mmHg 54%
    19:00 +13°C° 0 mm 1 mps 668 mmHg 58%
    20:00 +13°C° 0 mm 1 mps 668 mmHg 59%
    21:00 +13°C° 0 mm 1 mps 668 mmHg 59%
    22:00 +12°C° 0 mm 1 mps 668 mmHg 59%
    23:00 +12°C° 0 mm 1 mps 668 mmHg 60%

    20 Octubre, Sábado

    Tiempo Temperatura Precipitaciones Viento Presión Humedad
    00:00 +12°C° 0 mm 1 mps 668 mmHg 60%
    01:00 +12°C° 0 mm 1 mps 668 mmHg 60%
    02:00 +11°C° 0 mm 1 mps 668 mmHg 60%
    03:00 +11°C° 0 mm 1 mps 668 mmHg 61%
    04:00 +11°C° 0 mm 1 mps 668 mmHg 61%
    05:00 +11°C° 0 mm 1 mps 668 mmHg 61%
    06:00 +12°C° 0 mm 1 mps 669 mmHg 60%
    07:00 +12°C° 0 mm 1 mps 669 mmHg 60%
    08:00 +14°C° 0 mm 1 mps 669 mmHg 53%
    09:00 +18°C° 0 mm 1 mps 670 mmHg 47%
    10:00 +20°C° 0 mm 1 mps 671 mmHg 40%
    11:00 +20°C° 0 mm 1 mps 671 mmHg 38%
    12:00 +20°C° 0 mm 2 mps 671 mmHg 37%
    13:00 +21°C° 0 mm 2 mps 671 mmHg 35%
    14:00 +20°C° 0 mm 2 mps 670 mmHg 38%
    15:00 +19°C° 0 mm 2 mps 670 mmHg 41%
    16:00 +19°C° 0 mm 2 mps 670 mmHg 44%
    17:00 +17°C° 0 mm 2 mps 670 mmHg 48%
    18:00 +15°C° 0 mm 2 mps 669 mmHg 53%
    19:00 +13°C° 0 mm 1 mps 669 mmHg 57%
    20:00 +13°C° 0 mm 1 mps 669 mmHg 58%
    21:00 +12°C° 0 mm 2 mps 669 mmHg 59%
    22:00 +12°C° 0 mm 2 mps 669 mmHg 60%
    23:00 +10°C° 0 mm 2 mps 669 mmHg 60%

    21 Octubre, Domingo

    Tiempo Temperatura Precipitaciones Viento Presión Humedad
    00:00 +10°C° 0 mm 2 mps 669 mmHg 60%
    01:00 +10°C° 0 mm 2 mps 669 mmHg 60%
    02:00 +9°C° 0 mm 2 mps 669 mmHg 61%
    03:00 +9°C° 0 mm 2 mps 669 mmHg 62%
    04:00 +9°C° 0 mm 2 mps 669 mmHg 63%
    05:00 +9°C° 0 mm 2 mps 669 mmHg 62%
    06:00 +9°C° 0 mm 2 mps 669 mmHg 62%
    07:00 +9°C° 0 mm 2 mps 669 mmHg 62%
    08:00 +13°C° 0 mm 2 mps 670 mmHg 55%
    09:00 +15°C° 0 mm 1 mps 670 mmHg 49%
    10:00 +18°C° 0 mm 1 mps 670 mmHg 42%
    11:00 +19°C° 0 mm 1 mps 670 mmHg 41%
    12:00 +19°C° 0 mm 1 mps 670 mmHg 40%
    13:00 +20°C° 0 mm 1 mps 670 mmHg 38%
    14:00 +19°C° 0 mm 1 mps 669 mmHg 41%
    15:00 +17°C° 0 mm 2 mps 669 mmHg 44%
    16:00 +17°C° 0 mm 2 mps 669 mmHg 47%
    17:00 +15°C° 0 mm 1 mps 668 mmHg 51%
    18:00 +14°C° 0 mm 1 mps 668 mmHg 55%
    19:00 +13°C° 0 mm 1 mps 668 mmHg 58%
    20:00 +13°C° 0 mm 1 mps 668 mmHg 60%
    21:00 +12°C° 0 mm 1 mps 668 mmHg 61%
    22:00 +12°C° 0 mm 1 mps 668 mmHg 62%
    23:00 +12°C° 0.1 mm 1 mps 667 mmHg 64%

    22 Octubre, Lunes

    Tiempo Temperatura Precipitaciones Viento Presión Humedad
    00:00 +11°C° 0.1 mm 1 mps 667 mmHg 66%
    01:00 +11°C° 0.1 mm 1 mps 667 mmHg 68%
    02:00 +11°C° 0.3 mm 1 mps 667 mmHg 71%
    03:00 +10°C° 0.3 mm 1 mps 666 mmHg 74%
    04:00 +10°C° 0.3 mm 1 mps 666 mmHg 77%
    05:00 +10°C° 0.1 mm 1 mps 666 mmHg 78%
    06:00 +10°C° 0.1 mm 1 mps 666 mmHg 79%
    07:00 +10°C° 0.1 mm 1 mps 666 mmHg 79%
    08:00 +11°C° 0.3 mm 1 mps 666 mmHg 76%
    09:00 +12°C° 0.3 mm 1 mps 667 mmHg 73%
    10:00 +13°C° 0.3 mm 2 mps 667 mmHg 70%
    11:00 +13°C° 0.6 mm 2 mps 666 mmHg 70%
    12:00 +13°C° 0.6 mm 2 mps 666 mmHg 70%
    13:00 +13°C° 0.6 mm 2 mps 666 mmHg 70%
    14:00 +12°C° 0.7 mm 2 mps 665 mmHg 73%
    15:00 +12°C° 0.7 mm 1 mps 665 mmHg 76%
    16:00 +11°C° 0.7 mm 1 mps 665 mmHg 79%
    17:00 +11°C° 0.7 mm 1 mps 665 mmHg 82%
    18:00 +10°C° 0.7 mm 1 mps 665 mmHg 85%
    19:00 +9°C° 0.7 mm 2 mps 665 mmHg 87%
    20:00 +9°C° 0.9 mm 2 mps 665 mmHg 88%
    21:00 +8°C° 0.9 mm 2 mps 665 mmHg 88%
    22:00 +8°C° 0.9 mm 2 mps 665 mmHg 89%
    23:00 +8°C° 1 mm 2 mps 664 mmHg 89%
    Mostrar más